This demonstration page uses our WeatherBlox Daily Observations layout. Learn more.

Left ArrowRight Arrow

Hourly Observations for December 27, 2020

Temp ( °F °C ) Dew Point ( °F °C ) Humidity (%) Winds ( mph kmh ) Pressure ( in mb ) Visibility ( mi km ) Precip ( " mm )
12:15 am 00:15 Clear 30 -0.9 25 -4 80 80 Calm 29.77 1008 10 16.0934 0 0
12:35 am 00:35 Mostly Cloudy 32 0 25 -3.9 75 75 W 5 7 29.77 1008 10 16.0934 0 0
12:55 am 00:55 Partly Cloudy 32 -0.1 25 -4 75 75 WNW 3 6 29.76 1008 10 16.0934 0 0
1:15 am 01:15 Clear 33 0.4 26 -3.6 75 75 WNW 5 7 29.76 1008 10 16.0934 0 0
1:35 am 01:35 Clear 36 2.1 26 -3.5 67 67 WNW 5 7 29.73 1007 10 16.0934 0 0
1:55 am 01:55 Clear 34 0.9 25 -3.7 72 72 WNW 7 11 29.76 1008 10 16.0934 0 0
2:15 am 02:15 Clear 33 0.7 26 -3.6 73 73 NW 7 11 29.76 1008 10 16.0934 0 0
2:35 am 02:35 Clear 33 0.5 26 -3.5 75 75 WNW 8 13 29.76 1008 10 16.0934 0 0
2:55 am 02:55 Clear 32 0 25 -3.7 76 76 NW 6 9 29.77 1008 10 16.0934 0 0
3:15 am 03:15 Clear 33 0.3 26 -3.4 76 76 WNW 5 7 29.77 1008 10 16.0934 0 0
3:35 am 03:35 Clear 33 0.4 26 -3.3 77 77 NW 5 7 29.77 1008 10 16.0934 0 0
3:55 am 03:55 Partly Cloudy 34 0.9 27 -3 75 75 NW 6 9 29.76 1008 10 16.0934 0 0
4:15 am 04:15 Mostly Cloudy 37 2.6 29 -1.5 75 75 NW 5 7 29.73 1007 10 16.0934 0 0
4:35 am 04:35 Mostly Cloudy 37 2.5 29 -1.8 74 74 W 6 9 29.73 1007 10 16.0934 0 0
4:55 am 04:55 Partly Cloudy 37 2.6 29 -1.4 75 75 WNW 8 13 29.74 1007 10 16.0934 0 0
5:15 am 05:15 Mostly Cloudy 38 3.3 31 -0.7 75 75 NW 7 11 29.72 1007 10 16.0934 0 0
5:35 am 05:35 Mostly Cloudy 38 3.6 32 -0.1 77 77 WNW 8 13 29.73 1007 10 16.0934 0 0
5:55 am 05:55 Partly Cloudy 39 3.7 32 0.1 78 78 W 9 15 29.73 1007 10 16.0934 0 0
6:15 am 06:15 Clear 39 4 32 0.1 76 76 WNW 8 13 29.74 1007 10 16.0934 0 0
6:35 am 06:35 Clear 39 4 32 0.1 76 76 NW 9 15 29.75 1007 10 16.0934 0 0
6:55 am 06:55 Clear 37 2.9 32 0 81 81 NNW 12 19 29.77 1008 10 16.0934 0 0
7:15 am 07:15 Clear 36 2.3 31 -0.6 81 81 N 12 19 29.78 1009 10 16.0934 0 0
7:35 am 07:35 Clear 35 1.7 30 -1.3 81 81 NNW 13 20 29.82 1010 10 16.0934 0 0
7:55 am 07:55 Clear 34 1.2 28 -2.3 78 78 NNW 16 26 29.84 1011 10 16.0934 0 0
8:15 am 08:15 Sunny 34 1 28 -2.5 78 78 N 13 20 29.86 1011 10 16.0934 0 0
8:35 am 08:35 Partly Cloudy 34 1.1 28 -2.1 79 79 NNW 14 22 29.87 1012 10 16.0934 0 0
8:55 am 08:55 Partly Cloudy 35 1.6 29 -1.5 80 80 NNW 12 19 29.89 1012 10 16.0934 0 0
9:15 am 09:15 Sunny 37 2.5 31 -0.8 79 79 NW 9 15 29.9 1013 10 16.0934 0 0
9:35 am 09:35 Sunny 37 3 31 -0.5 78 78 NNW 10 17 29.9 1012 10 16.0934 0 0
9:55 am 09:55 Partly Cloudy 39 4.1 33 0.5 78 78 NNW 17 28 29.91 1013 10 16.0934 0 0
10:15 am 10:15 Partly Cloudy 40 4.6 33 0.8 77 77 NNW 13 20 29.91 1013 10 16.0934 0 0
10:35 am 10:35 Mostly Cloudy 42 5.5 35 1.6 76 76 N 21 33 29.91 1013 10 16.0934 0 0
10:55 am 10:55 Mostly Cloudy 42 5.7 35 1.5 75 75 NNW 21 33 29.94 1014 10 16.0934 0 0
11:15 am 11:15 Cloudy 41 5 34 1.2 77 77 NNW 18 30 29.95 1014 10 16.0934 0 0
11:35 am 11:35 Mostly Cloudy 42 5.5 34 0.9 73 73 NNW 18 30 29.94 1014 10 16.0934 0 0
11:55 am 11:55 Mostly Cloudy 43 6.1 33 0.4 67 67 NNW 24 39 29.94 1014 10 16.0934 0 0
12:15 pm 12:15 Mostly Cloudy 43 6.2 32 0.1 65 65 NNW 17 28 29.95 1014 10 16.0934 0 0
12:35 pm 12:35 Mostly Cloudy 44 6.8 32 0.1 63 63 NNW 20 31 29.93 1014 10 16.0934 0 0
12:55 pm 12:55 Partly Cloudy 45 7.3 32 -0.1 60 60 NNW 22 35 29.94 1014 10 16.0934 0 0
1:15 pm 13:15 Partly Cloudy 45 7 31 -0.4 60 60 NNW 21 33 29.94 1014 10 16.0934 0 0
1:35 pm 13:35 Partly Cloudy 45 7 31 -0.5 59 59 NNW 20 31 29.94 1014 10 16.0934 0 0
1:55 pm 13:55 Mostly Cloudy 46 7.7 31 -0.6 56 56 NNW 22 35 29.95 1014 10 16.0934 0 0
2:15 pm 14:15 Partly Cloudy 46 7.6 30 -1 55 55 NW 18 30 29.95 1014 10 16.0934 0 0
2:35 pm 14:35 Partly Cloudy 45 7.2 30 -1 56 56 NW 21 33 29.96 1014 10 16.0934 0 0
2:55 pm 14:55 Sunny 45 7 30 -1.1 57 57 NW 22 35 29.97 1015 10 16.0934 0 0
3:15 pm 15:15 Sunny 45 7 30 -1.1 57 57 NNW 18 30 29.99 1016 10 16.0934 0 0
3:35 pm 15:35 Sunny 44 6.6 30 -1.3 57 57 NNW 21 33 29.99 1016 10 16.0934 0 0
3:55 pm 15:55 Sunny 43 6.2 29 -1.6 58 58 NNW 17 28 30 1016 10 16.0934 0 0
4:15 pm 16:15 Sunny 42 5.6 28 -2.1 58 58 NNW 22 35 30 1016 10 16.0934 0 0
4:35 pm 16:35 Sunny 41 5.1 28 -2.1 60 60 NNW 15 24 30.02 1016 10 16.0934 0 0
4:55 pm 16:55 Sunny 39 4.1 28 -2.2 64 64 NNW 10 17 30.04 1017 10 16.0934 0 0
5:15 pm 17:15 Sunny 38 3.4 28 -2 68 68 NNW 9 15 30.06 1018 10 16.0934 0 0
5:35 pm 17:35 Partly Cloudy 37 2.6 28 -2.5 69 69 NNW 7 11 30.09 1019 10 16.0934 0 0
5:55 pm 17:55 Partly Cloudy 35 1.8 28 -2.5 73 73 NNW 6 9 30.13 1020 10 16.0934 0 0
6:15 pm 18:15 Partly Cloudy 35 1.4 27 -2.6 75 75 NNW 9 15 30.13 1020 10 16.0934 0 0
6:35 pm 18:35 Clear 34 1 27 -2.7 77 77 NNW 7 11 30.16 1021 10 16.0934 0 0
6:55 pm 18:55 Clear 31 -0.3 27 -2.9 83 83 N 8 13 30.18 1022 10 16.0934 0 0
7:15 pm 19:15 Clear 30 -1 26 -3.4 84 84 N 7 11 30.2 1023 10 16.0934 0 0
7:35 pm 19:35 Clear 30 -1 26 -3.5 83 83 N 7 11 30.21 1023 10 16.0934 0 0
7:55 pm 19:55 Clear 29 -1.7 25 -3.9 85 85 N 7 11 30.23 1024 10 16.0934 0 0
8:15 pm 20:15 Clear 30 -1.2 26 -3.5 85 85 N 7 11 30.25 1024 10 16.0934 0 0
8:35 pm 20:35 Clear 29 -1.6 24 -4.2 83 83 N 5 7 30.26 1025 10 16.0934 0 0
8:55 pm 20:55 Clear 29 -1.5 24 -4.4 81 81 NNW 6 9 30.27 1025 10 16.0934 0 0
9:15 pm 21:15 Clear 27 -2.6 23 -5.2 83 83 NNE 6 9 30.27 1025 10 16.0934 0 0
9:35 pm 21:35 Clear 27 -2.9 23 -4.8 87 87 N 5 7 30.28 1026 10 16.0934 0 0
9:55 pm 21:55 Clear 28 -2 24 -4.5 83 83 NNW 7 11 30.28 1026 10 16.0934 0 0
10:15 pm 22:15 Partly Cloudy 27 -2.9 22 -5.7 81 81 NW 3 6 30.29 1026 10 16.0934 0 0
10:35 pm 22:35 Cloudy 27 -2.7 23 -4.9 85 85 Calm 30.29 1026 10 16.0934 0 0
10:55 pm 22:55 Cloudy 28 -2 24 -4.4 84 84 N 5 7 30.29 1026 10 16.0934 0 0
11:15 pm 23:15 Cloudy 28 -2 25 -4 86 86 NNW 3 6 30.3 1026 10 16.0934 0 0
11:35 pm 23:35 Cloudy 29 -1.5 25 -4 83 83 Calm 30.31 1026 10 16.0934 0 0
11:55 pm 23:55 Cloudy 29 -1.6 25 -4 84 84 Calm 30.31 1026 10 16.0934 0 0

Powered by AerisWeather